Theta_e
317 317 318 318 319 319 320 320 320 320 320 320 319 319 319 319 317 303 294 299 309 318 317 304 299 297 296 298 300 298 291 287 290 289 290 293 291 294 294 294 295 299 303 305 305
318 318 318 319 319 320 320 320 320 320 320 320 319 319 319 318 307 298 306 312 315 316 300 297 295 295 292 295 296 294 289 290 292 290 289 292 291 291 292 291 292 293 296 301 302
318 318 319 320 320 320 320 320 320 320 320 320 318 318 318 314 299 296 312 314 317 312 301 298 296 293 290 293 293 292 290 290 292 292 292 291 291 291 288 289 293 293 292 299 299
319 319 319 320 320 320 320 320 320 320 320 319 317 317 317 305 289 297 315 314 316 306 299 296 295 290 289 289 293 289 293 293 295 294 292 290 292 291 290 292 292 292 292 298 300
319 319 319 320 320 320 320 320 320 320 320 318 316 317 305 295 294 299 310 306 301 299 296 295 292 291 288 289 289 289 290 291 292 292 291 291 290 289 290 293 293 293 293 291 298
318 318 318 319 318 320 320 320 320 321 320 317 315 315 299 288 298 298 298 299 299 298 296 297 294 294 290 289 288 289 289 289 289 289 289 288 287 287 289 289 290 290 291 291 291
317 316 317 318 320 319 319 320 320 320 319 315 313 307 296 292 296 296 298 296 297 297 295 296 296 292 290 287 291 289 286 286 285 287 286 285 286 285 289 290 289 289 289 289 290
315 316 316 318 318 319 318 319 320 320 316 312 311 299 289 297 295 296 296 296 297 298 297 297 296 293 290 289 288 284 283 281 284 285 286 284 284 288 287 287 287 288 288 288 288
313 313 314 315 317 318 318 318 318 314 311 311 298 293 290 302 293 295 294 293 295 296 297 298 293 288 287 283 281 281 279 280 283 285 284 283 283 286 286 288 288 288 288 288 288
310 311 312 313 315 316 318 315 313 305 305 302 297 290 291 289 294 294 294 295 293 293 293 291 287 283 282 281 279 280 279 280 280 282 283 281 283 287 287 287 287 286 286 286 287
309 309 310 311 313 316 307 298 297 296 294 292 291 290 290 293 295 293 294 293 292 288 284 286 282 281 283 282 283 283 281 280 280 283 281 281 282 286 286 286 285 285 284 285 286
307 308 308 309 311 314 299 293 291 290 288 295 294 291 293 292 289 291 294 288 286 283 284 282 281 284 284 283 282 281 280 279 281 283 281 280 281 286 285 284 283 283 284 284 285
306 306 306 308 311 305 295 294 298 294 287 293 291 290 291 292 289 289 291 288 284 282 282 281 283 285 284 281 281 280 280 279 280 281 280 279 281 283 284 285 284 284 284 285 284
304 305 306 307 307 303 297 299 297 298 281 287 287 289 290 291 287 291 290 287 284 282 282 281 283 283 281 281 281 279 281 281 281 277 273 279 275 280 282 283 283 283 282 284 285
305 304 305 305 303 302 300 299 295 297 275 287 286 291 289 286 287 286 290 286 282 282 282 281 280 280 280 280 282 280 281 281 280 274 271 274 271 279 280 280 282 281 283 283 285
304 304 305 300 303 303 302 298 297 286 277 283 284 283 282 284 284 286 286 287 285 282 281 280 282 281 281 282 282 283 281 281 279 274 267 272 274 277 279 280 280 282 282 284 285
306 306 301 301 298 302 300 298 285 280 285 280 281 282 281 281 282 283 281 280 278 275 276 279 279 280 283 280 282 281 278 267 269 267 271 274 270 278 281 280 281 283 283 283 285
305 304 298 300 305 303 299 289 278 274 277 285 282 282 280 282 281 281 279 277 280 278 276 275 274 280 282 280 279 279 278 273 267 269 272 274 270 279 281 281 283 284 284 285 284
303 292 292 304 302 301 294 282 277 279 285 283 283 281 281 282 283 282 280 278 282 283 279 276 278 280 282 282 282 278 276 280 269 261 268 272 277 281 281 281 282 284 286 287 286
291 288 289 301 304 299 286 282 281 284 287 285 282 284 277 278 279 279 280 282 283 284 285 283 280 281 282 284 284 280 282 277 276 269 266 271 271 277 278 279 282 285 286 287 287
287 283 289 299 301 293 280 275 283 288 290 287 282 282 282 281 279 275 279 283 284 282 284 281 284 278 281 279 279 278 278 279 281 280 272 269 275 281 280 281 282 285 286 286 285
285 274 289 296 285 284 271 278 287 286 289 289 286 284 282 283 279 278 276 281 284 284 281 283 281 271 277 279 280 280 279 280 278 275 275 275 275 283 282 283 285 285 286 286 285
286 282 288 291 278 279 280 283 286 284 285 286 285 285 284 284 279 279 275 283 283 281 281 282 276 266 273 277 278 277 279 280 279 277 272 272 275 283 283 284 285 285 284 284 283
286 276 275 287 286 283 276 280 280 285 285 286 285 285 282 281 283 275 277 283 283 280 289 285 278 274 272 274 277 275 277 279 278 270 273 275 276 280 281 283 284 284 284 282 282
284 279 277 268 273 280 281 281 275 275 284 284 282 283 282 280 279 278 278 283 283 285 283 281 270 272 272 275 276 277 277 277 276 277 274 278 278 282 283 283 283 284 284 282 281
280 280 277 279 277 277 279 276 278 278 281 278 280 282 283 280 282 278 281 281 282 281 280 279 269 269 267 270 275 277 279 277 277 277 276 276 277 283 283 284 283 283 282 281 281
288 288 283 278 277 277 275 278 278 280 281 283 282 281 279 281 285 286 287 285 284 281 279 277 271 269 265 267 267 268 277 278 278 277 277 275 282 283 281 282 283 282 282 282 281
Wind_Speed
10 11 11 12 13 13 14 14 14 14 14 14 14 14 14 15 14 1 1 2 4 9 7 4 0 1 2 2 2 3 4 3 4 7 3 3 1 0 2 2 2 4 4 2 2
11 11 12 13 13 13 14 14 15 16 17 16 15 13 13 13 3 2 2 4 6 6 3 3 2 2 3 1 2 4 3 7 3 3 1 2 1 4 4 3 3 3 3 2 4
11 12 12 13 14 14 14 15 16 16 16 15 13 12 11 7 3 1 4 7 5 1 1 1 0 1 2 2 2 3 5 2 2 2 0 1 3 1 1 4 9 6 4 3 4
11 11 12 13 14 15 16 16 16 17 18 15 12 9 11 3 4 1 7 6 4 3 1 1 1 2 3 3 2 2 4 3 3 2 2 2 5 6 7 8 2 3 4 3 7
10 11 14 15 14 16 16 17 17 17 16 13 9 7 3 2 5 3 7 6 2 1 3 1 2 3 3 3 2 3 2 2 3 4 4 3 7 6 10 12 9 7 6 4 6
12 14 16 16 16 15 16 16 17 16 15 11 5 4 1 2 2 4 5 2 4 4 3 5 1 1 2 1 3 0 3 6 5 2 3 3 4 1 5 1 3 2 7 9 7
13 16 15 15 16 17 19 17 18 17 15 6 3 1 0 7 1 3 5 1 2 2 3 2 1 2 1 1 2 1 6 6 1 1 3 1 8 10 6 5 7 6 5 5 8
15 16 16 15 16 15 18 18 18 17 6 2 2 1 6 0 1 2 3 2 4 2 3 2 2 4 2 1 5 3 3 4 1 2 1 2 10 4 2 3 6 6 5 6 6
17 16 18 18 17 16 18 19 16 7 1 1 2 2 8 2 1 1 2 2 1 2 4 2 3 3 4 4 5 4 4 5 6 3 2 2 9 4 3 8 10 9 8 8 7
21 21 21 20 20 21 20 15 3 3 2 1 1 3 1 2 1 1 2 3 3 2 3 5 5 3 3 4 6 5 4 4 5 3 1 2 15 12 5 7 10 9 8 8 8
22 23 23 23 23 23 9 4 6 3 2 7 3 3 1 1 1 1 1 3 2 3 4 2 3 9 11 7 2 4 3 3 2 1 2 4 10 20 6 7 8 7 8 8 6
22 23 24 25 26 18 3 5 1 2 8 5 6 5 1 2 1 3 2 5 3 6 5 3 9 6 2 4 5 3 2 5 3 2 0 4 12 17 5 2 3 6 8 8 3
20 22 24 25 26 5 3 2 2 3 3 8 4 3 3 5 5 5 7 4 4 6 8 7 2 4 6 5 5 3 5 4 5 1 2 6 8 4 1 2 5 6 3 5 5
23 22 24 27 2 4 2 4 2 2 3 7 2 2 2 2 4 1 3 3 2 8 7 6 3 5 3 4 6 4 4 3 3 4 4 3 6 5 2 5 5 6 6 6 7
22 24 23 19 7 3 2 3 4 0 4 1 2 2 1 3 3 1 1 2 5 6 6 6 6 5 4 4 6 3 4 5 3 5 4 4 4 9 2 1 3 3 4 5 6
22 23 26 6 4 2 3 3 0 1 11 1 2 2 2 1 0 1 1 2 1 3 1 4 1 3 3 3 2 8 6 6 4 4 3 5 5 6 3 3 2 2 3 5 7
22 23 18 2 3 4 3 1 3 6 4 4 2 3 2 4 2 3 4 4 6 5 5 1 3 1 3 6 4 3 6 3 4 3 7 1 3 9 4 2 5 7 6 5 6
26 23 6 4 4 4 1 1 7 3 6 3 1 2 4 6 2 3 2 3 6 2 3 6 5 8 4 4 7 6 6 7 8 4 4 4 7 5 3 2 3 5 6 5 5
21 4 5 3 3 0 1 7 10 8 4 3 1 2 3 2 3 4 7 5 7 14 9 5 3 1 2 1 2 5 6 3 9 1 3 3 5 7 2 4 4 7 7 7 6
4 4 4 6 4 1 3 13 6 3 2 3 4 6 4 3 4 3 7 4 5 10 1 6 2 1 1 1 1 3 3 3 2 3 3 4 5 5 7 8 6 5 6 5 4
3 4 4 6 2 2 7 8 5 4 3 5 4 4 5 3 4 4 5 4 3 3 3 4 3 2 3 8 9 3 3 2 1 2 5 1 7 5 11 10 11 7 5 6 4
2 4 3 4 1 3 3 4 3 4 1 5 2 4 4 3 5 5 7 6 2 6 7 5 3 4 6 0 1 1 6 6 5 5 3 2 8 5 9 10 9 7 6 5 4
5 4 3 2 5 8 5 6 4 4 3 2 4 6 3 4 3 6 3 4 1 3 6 5 2 2 8 4 3 5 5 3 4 3 7 7 7 3 6 6 7 8 6 6 5
3 5 5 2 3 3 3 8 9 4 4 5 4 1 1 3 4 5 3 2 2 2 4 2 2 7 9 6 4 5 5 6 5 4 6 8 4 3 7 9 8 7 7 7 8
4 5 4 4 5 9 8 5 3 3 4 3 4 9 10 9 3 8 3 4 2 3 2 5 5 4 3 3 1 3 4 8 12 9 8 6 11 9 13 15 12 10 7 7 8
3 3 2 3 3 4 7 7 8 7 5 7 8 9 6 8 14 6 1 2 6 1 5 1 3 3 4 3 2 4 9 8 9 4 9 3 10 7 4 6 6 10 7 8 8
2 3 4 7 3 4 5 6 7 2 8 14 14 13 11 12 7 8 7 7 6 5 4 3 6 5 7 3 3 6 18 11 7 8 8 11 17 5 6 9 12 10 8 10 8
Wind_Direction
344 343 345 344 343 344 344 345 345 342 337 331 329 330 333 337 324 324 359 291 313 323 334 282 3 61 69 87 75 132 65 220 239 167 253 3 1 44 324 293 327 201 178 267 170
339 339 341 342 341 339 339 341 341 338 336 331 328 324 328 336 311 299 109 322 324 339 21 36 70 15 56 76 28 100 132 225 230 212 268 334 8 329 353 4 273 282 257 22 144
336 337 338 338 339 338 337 337 334 333 333 330 321 316 318 326 306 64 337 333 322 134 130 19 242 78 109 102 194 149 206 221 289 268 155 302 291 322 233 258 235 235 242 191 182
328 331 332 333 332 333 332 332 332 332 332 330 323 313 317 279 248 125 342 340 339 148 209 123 91 105 133 193 159 217 247 236 296 4 13 296 325 295 201 230 215 248 260 193 190
321 330 332 329 326 326 328 329 329 329 329 330 329 323 338 1 259 354 351 349 66 103 45 51 125 133 185 193 148 198 303 308 314 311 268 308 249 248 263 253 267 276 284 270 217
3 349 339 331 326 322 321 322 324 320 323 322 328 327 358 265 130 360 345 35 46 53 40 32 123 182 135 223 165 350 275 271 272 197 261 245 267 83 260 121 353 270 263 252 237
4 347 342 333 323 323 325 321 320 318 318 303 324 20 143 237 85 352 23 61 9 66 100 54 68 81 92 323 348 309 312 318 206 169 205 77 290 232 256 284 303 290 289 290 241
7 352 346 341 335 329 322 317 313 316 320 293 23 19 243 5 234 52 354 69 18 59 102 132 99 109 78 355 13 5 39 342 346 103 231 167 267 257 4 84 336 322 299 287 272
5 356 350 343 338 330 322 309 307 304 313 53 22 38 280 359 42 87 53 107 14 44 42 77 61 80 37 90 1 2 240 214 311 47 321 158 275 283 68 346 296 276 275 268 267
360 355 348 344 336 328 318 316 312 54 20 91 38 14 258 233 129 63 33 68 90 81 49 51 50 70 46 110 222 210 227 245 254 347 18 263 272 278 304 316 288 301 292 270 246
356 354 348 342 338 333 341 6 7 338 11 209 204 252 173 130 111 66 49 91 82 65 181 19 108 213 208 199 142 137 190 243 231 51 331 256 278 283 294 291 308 319 324 306 261
355 351 347 340 333 332 16 68 95 218 308 246 248 273 249 190 258 214 134 151 159 188 124 50 228 209 145 163 207 205 181 260 290 50 306 351 283 281 283 303 3 331 347 355 49
352 349 346 337 325 16 30 43 327 178 260 290 204 195 212 146 226 227 149 150 168 167 189 175 200 118 156 164 163 210 182 201 208 339 63 326 290 332 7 24 24 19 18 40 72
352 349 347 340 13 333 37 315 317 262 26 265 231 283 87 153 254 99 179 136 217 208 166 232 244 178 175 200 146 216 181 130 134 89 228 14 274 294 359 23 30 26 48 65 84
349 347 340 333 293 309 289 297 284 206 305 211 190 302 100 181 125 348 329 80 195 183 139 237 165 170 173 205 171 218 103 110 92 88 49 321 73 264 316 33 8 61 93 99 107
335 334 334 338 313 268 302 293 314 238 241 211 130 161 134 208 196 127 120 50 184 137 227 255 346 187 189 81 75 147 75 49 59 92 -0 237 141 272 197 216 275 180 167 144 127
330 328 328 264 268 327 338 263 291 224 331 283 241 165 202 200 219 179 168 185 165 107 225 346 215 180 143 87 39 95 95 352 359 7 220 131 67 244 288 247 215 190 182 169 156
338 325 294 245 294 317 38 60 246 246 247 329 281 157 203 153 242 186 163 263 229 165 126 169 290 170 187 194 178 183 163 165 201 195 234 1 230 245 222 354 124 154 153 144 153
339 323 314 355 340 245 145 212 209 196 208 176 329 218 259 177 183 154 213 228 220 180 186 165 259 58 65 71 120 187 206 141 104 59 51 211 271 307 159 93 104 130 134 145 149
336 336 285 320 346 245 199 239 226 230 106 92 209 187 238 220 174 173 192 200 225 192 216 200 69 337 139 145 36 189 156 128 347 149 246 282 273 223 184 180 171 127 129 138 133
20 342 264 330 302 248 223 242 284 256 226 192 237 251 223 218 212 225 231 278 187 153 184 154 149 161 142 203 181 155 211 216 117 107 173 232 258 223 182 175 169 170 161 173 162
327 330 296 338 281 221 238 205 293 315 265 252 211 231 218 207 227 241 231 231 184 158 174 186 125 176 202 143 61 213 206 168 159 203 227 159 272 317 172 168 159 166 196 213 202
299 260 314 68 238 234 246 280 277 234 275 296 256 210 188 230 261 215 239 306 35 197 172 191 215 43 338 358 2 220 199 173 102 66 200 145 257 17 102 159 185 166 216 234 198
289 296 310 218 247 282 260 255 257 237 261 271 280 357 47 268 203 272 277 321 341 206 53 115 168 176 202 194 136 198 194 184 149 145 163 221 170 159 211 193 209 211 209 214 202
211 258 194 285 267 248 270 287 310 294 254 225 288 237 242 256 246 243 246 284 226 238 115 154 212 168 256 308 278 229 197 186 204 216 185 204 210 215 205 210 218 217 208 203 208
229 221 248 250 294 237 207 227 241 270 252 277 240 268 281 257 250 288 232 218 251 30 184 27 231 93 317 1 304 284 260 210 220 228 258 260 263 222 165 204 244 236 187 206 222
251 237 232 239 197 261 230 237 263 227 240 239 256 270 268 273 255 271 236 242 266 192 217 169 136 116 258 354 61 314 234 197 203 203 168 219 240 146 186 205 230 248 231 237 214